Location: Buch
(49.7331°N, 12.1098°E)
Time: 03:31:08
(UTC+00:00)

Landsat 7 - Pass Details

Date: 04 October 2021
Orbit: 701 x 703 km, 98.0° (Epoch: 21 October)

Event Time Altitude Azimuth Distance (km) Brightness Sun altitude
Exits shadow 20:04:39 41° 317° (NW) 1,028 5.0 -31.8°
Drops below altitude 10° 20:07:56 10° 339° (NNW) 2,181 7.0 -32.2°
Sets 20:10:14 0° 344° (NNW) 3,103 7.9 -32.5°
